Overview Statistics Trail Chart Weather Telemetry Raw packets
 

This is the latest recevied weather packets stored in our database for station/object F4ELU-13. If no packets are shown the sender has not sent any weather packets the latest 10 day(s).

<< 1 2 3 4 >>
Time Temp. Humidity Pressure Rain* Wind** Luminosity Snow
1788599883 24.44° C 67% 1023.6 hPa 0 mm - - -
1788599343 24.44° C 67% 1023.6 hPa 0 mm - - -
1788598803 23.33° C 67% 1023.5 hPa 0 mm - - -
1788598443 23.33° C 69% 1023.5 hPa 0 mm - - -
1788597903 22.78° C 70% 1023.5 hPa 0 mm - - -
1788597363 22.78° C 69% 1023.5 hPa 0 mm - - -
1788596823 22.22° C 70% 1023.4 hPa 0 mm - - -
1788596283 22.22° C 71% 1023.3 hPa 0 mm - - -
1788595743 21.67° C 71% 1023.3 hPa 0 mm - - -
1788595203 21.67° C 70% 1023.2 hPa 0 mm - - -
1788594843 21.11° C 72% 1023.3 hPa 0 mm - - -
1788594303 21.11° C 72% 1023.2 hPa 0 mm - - -
1788593763 20.56° C 73% 1023.2 hPa 0 mm - - -
1788593223 20° C 74% 1023 hPa 0 mm - - -
1788592683 20° C 74% 1023 hPa 0 mm - - -
1788592143 18.89° C 78% 1023 hPa 0 mm - - -
1788591603 17.78° C 81% 1022.7 hPa 0 mm - - -
1788591243 17.22° C 83% 1022.7 hPa 0 mm - - -
1788590703 16.67° C 84% 1022.7 hPa 0 mm - - -
1788590163 16.67° C 84% 1022.7 hPa 0 mm - - -
1788589623 16.11° C 87% 1022.6 hPa 0 mm - - -
1788589083 15.56° C 88% 1022.6 hPa 0 mm - - -
1788588543 15.56° C 90% 1022.5 hPa 0 mm - - -
1788588003 15.56° C 90% 1022.5 hPa 0 mm - - -
1788587643 15° C 89% 1022.5 hPa 0 mm - - -

* Rain latest hour (hover to see other rain measurements)
** Current wind speed in m/s (hover to see current wind gust speed)